This is the latest recevied weather packets stored in our database for station/object K3RUP-1. If no packets are shown the sender has not sent any weather packets the latest 10 day(s).
| Time | Temp. | Humidity | Pressure | Rain* | Wind** | Luminosity | Snow |
|---|---|---|---|---|---|---|---|
| 1788042495 | 24.44° C | 63% | 1021.5 hPa | 0 mm | - | 27 W/m² | - |
| 1788042191 | 25° C | 65% | 1021.7 hPa | 0 mm | - | 33 W/m² | - |
| 1788041887 | 25° C | 63% | 1021.6 hPa | 0 mm | - | 35 W/m² | - |
| 1788041581 | 25° C | 60% | 1021.5 hPa | 0 mm | - | 31 W/m² | - |
| 1788041281 | 25° C | 61% | 1021.5 hPa | 0 mm | - | 83 W/m² | - |
| 1788040980 | 25° C | 63% | 1021.6 hPa | 0 mm | - | 41 W/m² | - |
| 1788040673 | 25° C | 60% | 1021.7 hPa | 0 mm | - | 37 W/m² | - |
| 1788040368 | 25° C | 60% | 1021.7 hPa | 0 mm | - | 37 W/m² | - |
| 1788040064 | 25° C | 62% | 1021.8 hPa | 0 mm | - | 50 W/m² | - |
| 1788039758 | 25° C | 60% | 1021.7 hPa | 0 mm | - | 44 W/m² | - |
| 1788039458 | 25.56° C | 59% | 1021.8 hPa | 0 mm | - | 41 W/m² | - |
| 1788039148 | 25.56° C | 59% | 1021.6 hPa | 0 mm | - | 42 W/m² | - |
| 1788038844 | 25.56° C | 59% | 1021.5 hPa | 0 mm | - | 52 W/m² | - |
| 1788038539 | 25.56° C | 58% | 1021.7 hPa | 0 mm | - | 46 W/m² | - |
| 1788038238 | 25.56° C | 61% | 1021.5 hPa | 0 mm | - | 57 W/m² | - |
| 1788037933 | 25.56° C | 59% | 1021.4 hPa | 0 mm | - | 54 W/m² | - |
| 1788037628 | 26.11° C | 56% | 1021.5 hPa | 0 mm | - | 65 W/m² | - |
| 1788037323 | 26.67° C | 56% | 1022 hPa | 0 mm | - | 103 W/m² | - |
| 1788037022 | 26.67° C | 54% | 1021.9 hPa | 0 mm | - | 67 W/m² | - |
| 1788036718 | 26.67° C | 55% | 1021.8 hPa | 0 mm | - | 71 W/m² | - |
| 1788036414 | 26.67° C | 55% | 1022 hPa | 0 mm | - | 278 W/m² | - |
| 1788036109 | 26.67° C | 57% | 1022.1 hPa | 0 mm | - | 184 W/m² | - |
| 1788035822 | 26.67° C | 55% | 1022.1 hPa | 0 mm | - | 52 W/m² | - |
| 1788035504 | 26.67° C | 57% | 1022.2 hPa | 0 mm | - | 82 W/m² | - |
| 1788035199 | 26.11° C | 56% | 1022.3 hPa | 0 mm | - | 187 W/m² | - |
* Rain latest hour (hover to see other rain measurements)
** Current wind speed in m/s (hover to see current wind gust speed)